Regional Weather Roundup
Issued by NWS

Home | Current Version | Previous Version | Graphics & Text | Print | Product List | Glossary On
Versions: 1 2 3 4 5 6 7 8 9 10 11 12 13 14 15 16 17 18 19 20 21 22 23 24 25 26 27 28 29 30 31 32 33 34 35 36 37 38 39 40 41 42 43 44 45 46 47 48 49 50
568
ASUS44 KMEG 291800
RWRTN
TENNESSEE HOURLY STATE WEATHER ROUNDUP
NATIONAL WEATHER SERVICE MEMPHIS TN
100 PM CDT WED MAR 29 2017

TNZ002-004-019-021-049-052-054-088>092-291900-
WEST TENNESSEE

CITY           SKY/WX    TMP DP  RH WIND       PRES   REMARKS
MEMPHIS INTL   PTSUNNY   80  61  52 S17G24    29.92F
NWS MEMPHIS      N/A     79 N/A N/A MISG        N/A
JACKSON        PTSUNNY   77  61  57 S10       29.98F
DYERSBURG      PTSUNNY   75  62  64 SE12      29.95F
PARIS          SUNNY     72  57  60 SE5       30.00F
$$

TNZ008-025-027-028-033-062-065-066-291900-
NORTH MIDDLE TENNESSEE

CITY           SKY/WX    TMP DP  RH WIND       PRES   REMARKS
NASHVILLE      MOSUNNY   77  53  43 E8        30.04F
CLARKSVILLE    MOSUNNY   71  56  58 E7        30.02F
SMYRNA         MOSUNNY   75  54  47 CALM      30.05F
CROSSVILLE     PTSUNNY   72  48  42 W10       30.09S
$$

TNZ061-075-076-078-094-096-097-291900-
SOUTH MIDDLE TENNESSEE

CITY           SKY/WX    TMP DP  RH WIND       PRES   REMARKS
TULLAHOMA      MOSUNNY   75  55  50 SW6       30.06F
WINCHESTER     SUNNY     75  57  53 CALM      30.05F
COLUMBIA       MOSUNNY   79  61  53 CALM      30.00F
SHELBYVILLE    SUNNY     77  59  53 E5        30.05F
$$

TNZ017-018-042-046-047-291900-
NORTHEAST TENNESSEE

CITY           SKY/WX    TMP DP  RH WIND       PRES   REMARKS
TRI CITIES     MOSUNNY   72  49  44 N3        30.06F
$$

TNZ012-013-036-069-073-074-291900-
CENTRAL EAST TENNESSEE

CITY           SKY/WX    TMP DP  RH WIND       PRES   REMARKS
KNOXVILLE      MOSUNNY   72  52  49 VRB3      30.04F
OAK RIDGE      SUNNY     74  48  39 MISG      30.06F
GATLINBURG     SUNNY     72  52  49 VRB5      30.03F
$$

TNZ083-085-099-291900-
SOUTHEAST TENNESSEE

CITY           SKY/WX    TMP DP  RH WIND       PRES   REMARKS
CHATTANOOGA    MOSUNNY   76  53  44 VRB3      30.07R
$$

SKY/WX REPORTED AS FAIR MEANS FEW OR NO CLOUDS BELOW
12 THOUSAND FEET.





USA.gov is the U.S. government's official web portal to all federal, state and local government web resources and services.